User: anonymous   Login
Location: Radford
(37.1320°N, 80.5770°W)
Time: 19:00:10
(UTC-05:00)
Language:

Okean 1-7 - Orbit

View from above orbital plane
View from above orbital plane
View from above satellite
View from above satellite

Ground track
Ground track

The orbit data is extracted from the following two-line orbital elements,

1 23317U 94066A   14332.62882416  .00002716  00000-0  30723-3 0  7207
2 23317 082.5385 273.7071 0018522 274.8450 214.7362 14.86010636 87526
Epoch (UTC): 28 November 2014 15:05:30
Eccentricity: 0.0018522
inclination: 82.5385°
perigee height: 597 km
apogee height: 623 km
right ascension of ascending node: 273.7071°
argument of perigee: 274.8450°
revolutions per day: 14.86010636
mean anomaly at epoch: 214.7362°
orbit number at epoch: 8752

The dashed part of the orbit path shows where the satellite is in the earth's shadow,  

DLR